Location: Cossonay
(46.5833°N, 6.4167°E)
Time: 19:20:29
(UTC+00:00)

SL-4 R/B - Visible Passes

Search period start: 26 September 2020 00:00
Search period end: 06 October 2020 00:00
Orbit: 428 x 665 km, 51.6° (Epoch: 25 September)

Date Brightness Start Highest point End Pass type
(mag) Time Alt. Az. Time Alt. Az. Time Alt. Az.
26 Sep 4.1 02:15:47 28° E 02:15:47 28° E 02:18:15 10° ENE visible
26 Sep 2.6 03:51:23 30° W 03:53:27 57° NNW 03:58:12 10° ENE visible
27 Sep 4.2 02:09:38 26° ENE 02:09:38 26° ENE 02:11:49 10° ENE visible
27 Sep 2.8 03:45:13 32° WNW 03:47:03 52° NNW 03:51:44 10° ENE visible
28 Sep 4.5 02:03:28 24° ENE 02:03:28 24° ENE 02:05:20 10° ENE visible
28 Sep 2.9 03:39:03 34° WNW 03:40:39 48° N 03:45:18 10° ENE visible
29 Sep 4.7 01:57:17 21° ENE 01:57:17 21° ENE 01:58:52 10° ENE visible
29 Sep 3.0 03:32:52 35° NW 03:34:15 46° N 03:38:52 10° ENE visible
30 Sep 4.9 01:51:06 18° ENE 01:51:06 18° ENE 01:52:23 10° ENE visible
30 Sep 3.1 03:26:41 36° NW 03:27:52 44° N 03:32:27 10° ENE visible
01 Oct 5.0 01:44:56 16° ENE 01:44:56 16° ENE 01:45:54 10° ENE visible
01 Oct 3.1 03:20:31 38° NNW 03:21:28 44° N 03:26:03 10° ENE visible
01 Oct 2.7 04:57:00 10° WNW 05:01:42 68° NNE 05:06:31 10° ESE visible
02 Oct 5.2 01:38:48 14° ENE 01:38:48 14° ENE 01:39:25 10° ENE visible
02 Oct 3.0 03:14:23 41° NNW 03:15:05 44° N 03:19:40 10° ENE visible
02 Oct 2.5 04:50:32 10° WNW 04:55:14 78° NNE 05:00:05 10° ESE visible
03 Oct 5.4 01:32:42 11° ENE 01:32:42 11° ENE 01:32:57 10° ENE visible
03 Oct 3.0 03:08:18 45° N 03:08:41 46° N 03:13:16 10° E visible
03 Oct 2.4 04:44:04 10° WNW 04:48:45 90° N 04:53:36 10° ESE visible
04 Oct 3.0 03:02:15 48° N 03:02:16 48° N 03:06:54 10° E visible
04 Oct 2.3 04:37:52 12° WNW 04:42:15 77° SSW 04:47:05 10° SE visible
05 Oct 3.0 02:56:18 50° NE 02:56:18 50° NE 03:00:31 10° E visible
05 Oct 2.4 04:31:54 15° WNW 04:35:44 64° SSW 04:40:31 10° SE visible
